New Bedford, MA

4:11 AM EST on February 13, 2016 (GMT -0500)
New Bedford Regional

Weather History for KEWB - May, 2014

Change the Weather History Date:

Monday, May 19, 2014

  Actual Average Record
Temperature  
Mean Temperature 57 °F -  
Max Temperature 68 °F 63 °F 80 °F (1960)
Min Temperature 48 °F 49 °F 37 °F (2002)
Degree Days  
Heating Degree Days 8    
Growing Degree Days 7 (Base 50)    
Moisture  
Dew Point 39 °F    
Average Humidity 53    
Maximum Humidity 86    
Minimum Humidity 29    
Precipitation  
Precipitation 0.02 in - - ()
Sea Level Pressure  
Sea Level Pressure 30.04 in    
Wind  
Wind Speed 6 mph (NNW)    
Max Wind Speed 14 mph    
Max Gust Speed 25 mph    
Visibility 10 miles    
Events Rain    
Averages and records for this station are not official NWS values.
T = Trace of Precipitation, MM = Missing Value Source: NWS Daily Summary

Daily Weather History Graph

Daily Weather History Graph

Search for Another Location

Airport or City:

Trip Planner

Search our weather history database for the weather conditions in past years. The results will help you decide how hot, cold, wet, or windy it might be!

Date:

Astronomy

May. 19, 2014 Rise Set
Actual Time 5:20 AM EDT 8:00 PM EDT
Civil Twilight 4:48 AM EDT 8:32 PM EDT
Nautical Twilight 4:08 AM EDT 9:13 PM EDT
Astronomical Twilight 3:22 AM EDT 9:59 PM EDT
Moon No Moon Rise 10:15 AM EDT (5/19)
Length of Visible Light 15h 44m
Length of Day
14h 40m
Waning Gibbous, 71% of the Moon is Illuminated
May 19
Waning Gibbous
May 21
Last Quarter
May 28
New
Jun 5
First Quarter
Jun 13
Full

Hourly Weather History & Observations

Time (EDT) Temp. Dew Point Humidity Pressure Visibility Wind Dir Wind Speed Gust Speed Precip Events Conditions
12:53 AM 52.0 °F 42.1 °F 69% 30.04 in 10.0 mi NW 4.6 mph - N/A   Clear
1:53 AM 53.1 °F 35.1 °F 50% 30.04 in 10.0 mi NW 5.8 mph - N/A   Clear
2:53 AM 52.0 °F 35.1 °F 53% 30.04 in 10.0 mi North 5.8 mph - N/A   Clear
3:53 AM 51.1 °F 34.0 °F 52% 30.05 in 10.0 mi Variable 3.5 mph - N/A   Partly Cloudy
4:53 AM 50.0 °F 34.0 °F 54% 30.06 in 10.0 mi Variable 3.5 mph - N/A   Clear
5:53 AM 48.9 °F 35.1 °F 59% 30.07 in 10.0 mi WNW 6.9 mph - N/A   Clear
6:53 AM 53.1 °F 35.1 °F 50% 30.08 in 10.0 mi WNW 8.1 mph - N/A   Clear
7:53 AM 55.9 °F 35.1 °F 45% 30.09 in 10.0 mi WNW 4.6 mph - N/A   Clear
10:53 AM 64.0 °F 37.0 °F 37% 30.04 in 10.0 mi NNW 9.2 mph 20.7 mph N/A   Clear
11:53 AM 64.0 °F 35.1 °F 34% 30.03 in 10.0 mi NW 8.1 mph 19.6 mph N/A   Partly Cloudy
12:53 PM 63.0 °F 35.1 °F 35% 30.03 in 10.0 mi North 6.9 mph - N/A   Overcast
1:53 PM 66.2 °F 37.4 °F 35% 30.01 in 10.0 mi WNW 13.8 mph 18.4 mph N/A   Mostly Cloudy
2:53 PM 66.0 °F 33.1 °F 29% 30.00 in 10.0 mi North - - N/A   Clear
3:53 PM 63.0 °F 34.0 °F 34% 30.01 in 10.0 mi NNW 12.7 mph 25.3 mph N/A   Mostly Cloudy
4:53 PM 63.0 °F 35.1 °F 35% 30.01 in 10.0 mi WNW 8.1 mph 17.3 mph N/A   Scattered Clouds
5:34 PM 57.9 °F 39.0 °F 49% 30.03 in 10.0 mi North 10.4 mph 20.7 mph N/A   Overcast
5:53 PM 57.0 °F 45.0 °F 64% 30.03 in 10.0 mi NNE 5.8 mph - 0.00 in   Mostly Cloudy
6:53 PM 55.9 °F 44.1 °F 64% 30.04 in 10.0 mi Variable 3.5 mph - 0.00 in Rain Light Rain
7:53 PM 55.0 °F 46.9 °F 74% 30.03 in 10.0 mi Calm Calm - 0.00 in   Mostly Cloudy
8:53 PM 54.0 °F 43.0 °F 66% 30.05 in 10.0 mi North 4.6 mph - N/A   Overcast
9:53 PM 55.0 °F 43.0 °F 64% 30.06 in 10.0 mi North 6.9 mph - N/A   Overcast
10:53 PM 52.0 °F 46.0 °F 80% 30.05 in 10.0 mi Variable 4.6 mph - 0.01 in Rain Light Rain
11:53 PM 51.1 °F 46.9 °F 86% 30.03 in 10.0 mi Calm Calm - 0.01 in Rain Light Rain